Location: *
(53.4422°N, 10.4894°E)
Time: 12:28:56
(UTC+00:00)

Daily predictions for brighter satellites

Satellite Brightness Start Highest point End
(mag) Time Altitude Azimuth Time Altitude Azimuth Time Altitude Azimuth
Lacrosse 5 2.3 16:32:41 10° WNW 16:37:43 66° SSW 16:42:44 10° SE
Cosmos 921 Rocket 3.1 16:34:25 10° SSW 16:38:53 76° ESE 16:43:19 10° NNE
Unknown 3.7 16:36:54 10° W 16:41:04 85° S 16:45:13 10° E
Unknown 3.7 16:38:34 10° W 16:42:44 86° S 16:46:54 10° E
CSL-04 Rocket 4.1 16:37:55 10° SE 16:43:00 40° ENE 16:48:04 10° N
Cosmos 1844 3.9 16:37:22 10° SSW 16:43:08 85° WNW 16:48:59 10° NNE
Unknown 3.7 16:40:13 10° W 16:44:24 86° S 16:48:33 10° E
YAOGAN 6 3.3 16:41:23 10° SE 16:44:40 32° ENE 16:47:55 10° N
YAOGAN 1 3.3 16:41:22 10° SE 16:45:14 33° ENE 16:49:08 10° N
Unknown 3.7 16:41:52 10° W 16:46:01 86° S 16:50:11 10° E
Cosmos 2263 Rocket 4.0 16:42:34 10° W 16:47:20 27° NW 16:52:04 10° NNE
Unknown 3.7 16:43:32 10° W 16:47:42 86° S 16:51:52 10° E
Cosmos 1777 Rocket 4.2 16:42:50 10° NNW 16:48:04 77° WSW 16:53:16 10° SSE
Unknown 3.5 16:45:24 10° W 16:49:14 77° S 16:53:04 10° ESE
Cosmos 1726 Rocket 3.6 16:46:17 10° S 16:50:40 90° E 16:55:02 10° NNE
Meteor 1-11 4.3 16:44:53 10° NNW 16:50:42 76° ENE 16:56:31 10° SSE
Unknown 3.6 16:46:51 10° W 16:51:01 86° S 16:55:08 10° E
Cosmos 1461 3.7 16:48:24 10° NW 16:52:22 53° SW 16:56:28 10° SSE
CZ-4 R/B 1.8 16:48:23 10° SE 16:52:25 45° ENE 16:56:29 10° N
Starlink (trailer) 3.6 16:48:31 10° W 16:52:41 86° S 16:56:43 11° E
Unknown 3.6 16:50:12 10° W 16:54:22 86° S 16:58:21 11° E
FengYun 1-2 T 4.3 16:48:58 10° SE 16:54:29 59° ENE 16:59:58 10° N
Unknown 3.6 16:51:54 10° W 16:56:04 86° S 16:59:59 11° E
ATLAS CENTAUR R/B 3.1 16:52:36 10° NW 16:56:21 23° NNE 16:59:50 10° ENE
EO 1 Delta rocket 4.4 16:52:06 10° SE 16:56:35 43° ENE 17:01:48 10° N
Cosmos 489 Rocket 4.5 16:52:09 10° S 16:58:17 67° ESE 17:04:28 10° NNE
Cosmos 1833 Rocket 2.9 16:53:38 10° NNW 16:59:17 79° WSW 17:04:54 10° SSE
Unknown 3.6 16:56:52 10° W 17:01:01 86° S 17:04:45 13° E
Cosmos 1892 4.4 16:58:51 10° NNE 17:01:07 15° ENE 17:02:35 13° E
ATLAS 3B R/B 4.0 16:57:43 10° SE 17:01:43 17° ESE 17:05:11 11° ENE
Unknown 3.6 16:58:29 10° W 17:02:39 86° S 17:06:18 13° E
Cosmos 1953 3.5 16:59:28 10° SSW 17:03:23 46° WNW 17:07:21 10° N
Unknown 3.6 17:00:09 10° W 17:04:19 86° S 17:07:54 14° E
Unknown 3.6 17:01:46 10° W 17:05:57 86° S 17:09:31 14° E
CENTAUR R/B 3.8 17:03:28 10° SSE 17:07:30 18° ESE 17:11:08 12° ENE
Unknown 3.6 17:03:28 10° W 17:07:38 86° S 17:11:06 15° E
Cosmos 1242 Rocket 4.2 17:04:57 10° NNW 17:08:27 40° W 17:11:53 10° SSW
Unknown 3.6 17:05:14 10° W 17:09:24 86° S 17:12:48 15° E
Cosmos 292 Rocket 3.8 17:05:01 10° SSW 17:09:46 89° WNW 17:14:34 10° NNE
SL-27 R/B 3.9 17:08:06 10° N 17:10:27 18° NE 17:11:28 16° ENE
Cosmos 2084 Rocket 3.8 17:06:09 10° NW 17:10:35 69° SW 17:14:56 10° SE
Unknown 3.6 17:08:30 10° W 17:12:39 86° S 17:15:55 16° E
Unknown 3.6 17:08:33 10° W 17:12:43 85° S 17:15:59 16° E
Unknown 3.6 17:10:08 10° W 17:14:18 85° S 17:17:30 17° E
Cosmos 1153 Rocket 4.4 17:09:58 10° N 17:16:06 65° ENE 17:22:12 10° SSE
SJ 16-02 2.1 17:12:16 10° N 17:16:14 32° NE 17:19:25 14° ESE
Unknown 3.6 17:13:23 10° W 17:17:33 85° S 17:20:36 18° E
Unknown 3.6 17:14:21 10° W 17:18:14 69° SSW 17:21:17 16° ESE
Unknown 3.6 17:16:48 10° W 17:20:57 84° S 17:23:53 19° E
Cosmos 2058 Rocket 3.4 17:17:39 10° SSW 17:21:59 69° WNW 17:26:22 10° N
Unknown 3.6 17:18:26 10° W 17:22:36 84° S 17:25:28 19° E
Abrixas rocket 3.4 17:20:18 10° SW 17:23:01 29° S 17:24:36 18° ESE
Cosmos 1300 3.4 17:19:57 10° SSE 17:23:22 32° E 17:26:47 10° NNE
COBE Rocket 3.9 17:18:12 10° NNE 17:23:24 77° ESE 17:28:27 10° S
Unknown 3.6 17:20:07 10° W 17:24:16 84° S 17:27:05 20° E
Unknown 3.6 17:21:48 10° W 17:25:58 84° S 17:28:43 21° E
Envisat 3.4 17:21:57 10° S 17:27:01 70° WSW 17:32:07 10° NNW
Cosmos 2227 Rocket 4.3 17:25:42 10° NNW 17:28:24 13° N 17:31:06 10° NNE
Unknown 3.6 17:25:07 10° W 17:29:17 83° S 17:31:53 22° E
COSMO-SKYMED 1 2.5 17:26:05 10° NNE 17:30:26 65° ESE 17:34:45 10° S
Unknown 3.6 17:26:50 10° W 17:31:00 82° S 17:33:32 23° ESE
Unknown 3.6 17:28:25 10° W 17:32:34 82° S 17:35:03 23° ESE
Cosmos 2297 Rocket 4.3 17:30:18 10° NNW 17:33:01 13° N 17:35:44 10° NE
Cosmos 1898 Rocket 3.5 17:28:09 10° NNW 17:33:25 63° ENE 17:38:41 10° SE
CSL-04 Debris 4.2 17:28:30 10° SSE 17:33:59 88° ENE 17:39:31 10° NNW
Unknown 3.6 17:30:01 10° W 17:34:10 82° S 17:36:35 24° ESE
Cosmos 2082 Rocket 2.7 17:28:51 10° NW 17:34:31 64° WSW 17:40:08 10° SSE
Unknown 3.6 17:31:46 10° W 17:35:55 81° S 17:38:16 25° ESE
Unknown 3.6 17:33:15 10° W 17:37:25 82° S 17:39:41 26° ESE
CZ-2D R/B 3.3 17:34:19 10° SSE 17:38:07 57° ENE 17:41:57 10° N
Cosmos 2058 2.9 17:34:25 10° N 17:38:36 59° ENE 17:42:46 10° SSE
USA 238 DEB 3.7 17:33:15 10° SSW 17:39:49 59° SE 17:46:09 12° NE
USA 238 3.7 17:33:22 10° SSW 17:39:55 59° SE 17:46:13 12° NE
Unknown 3.6 17:36:32 10° W 17:40:41 81° S 17:42:50 28° ESE
Cosmos 1844 Rocket 4.2 17:36:41 10° WSW 17:41:50 35° NW 17:47:00 10° NNE
Unknown 3.6 17:38:13 10° W 17:42:23 81° S 17:44:27 28° ESE
H-2A R/B 3.1 17:40:42 22° E 17:42:28 27° ENE 17:46:58 10° N
Unknown 4.4 17:40:29 10° W 17:44:00 40° SSW 17:46:21 18° SE
Unknown 3.6 17:40:04 10° W 17:44:07 72° SSW 17:46:07 28° ESE
Cosmos 1459 Rocket 4.0 17:37:57 10° N 17:44:09 63° ENE 17:50:24 10° SSE
Unknown 3.6 17:40:03 10° W 17:44:13 79° S 17:46:14 29° ESE
Cosmos 1076 Rocket 3.5 17:40:35 10° N 17:45:00 89° E 17:49:20 10° S
Cosmos 1766 Rocket 4.0 17:41:10 10° N 17:45:13 37° ENE 17:47:01 26° ESE
Unknown 3.6 17:41:35 10° W 17:45:44 80° S 17:47:41 30° ESE
Unknown 3.6 17:43:13 10° W 17:47:23 79° S 17:49:16 31° ESE
Unknown 3.6 17:46:33 10° W 17:50:42 78° S 17:52:28 33° ESE
Cosmos 1939 Rocket 2.8 17:48:17 10° SSE 17:52:18 73° ENE 17:56:25 10° N
Unknown 3.6 17:48:11 10° W 17:52:20 78° SSW 17:54:02 34° ESE
Cosmos 1726 4.1 17:49:58 10° SW 17:53:13 30° WNW 17:56:31 10° N
Unknown 3.6 17:49:50 10° W 17:54:00 77° S 17:55:37 36° ESE
IRS-1A Rocket 4.2 17:49:07 10° SSE 17:54:33 65° ENE 18:00:04 10° NNW
Cosmos 1408 Rocket 4.2 17:50:55 10° N 17:54:49 32° ENE 17:54:55 32° ENE
Unknown 3.6 17:51:33 10° W 17:55:42 76° SSW 17:57:16 37° ESE
In-Cosmos 22 Rocket 4.0 17:50:47 10° N 17:56:13 76° ENE 18:01:46 10° SSE
Unknown 3.6 17:52:43 10° W 17:56:49 73° SSW 17:58:19 37° ESE
Cosmos 2061 Rocket 4.0 17:51:36 10° N 17:57:48 59° ENE 18:03:54 10° SSE
ATLAS 5 CENTAUR R/B 3.3 17:53:59 10° WNW 17:58:12 31° NNW 18:01:48 15° NE
Unknown 3.6 17:54:52 10° W 17:59:01 75° SSW 18:00:27 39° ESE
Unknown 3.6 17:55:45 10° W 17:59:54 74° SSW 18:01:18 40° ESE
Unknown 3.7 17:56:34 10° W 18:00:42 72° SSW 18:02:06 39° ESE
Cosmos 2151 3.1 17:56:28 10° N 18:00:43 52° ENE 18:02:29 31° SE
NOSS 3-2 (A) 3.4 17:55:45 10° SSW 18:01:34 65° SE 18:06:32 18° NE
Okean 3 Rocket 3.5 17:57:41 10° N 18:02:13 67° ENE 18:05:52 15° SSE
Unknown 3.7 17:58:25 10° W 18:02:33 72° SSW 18:03:53 41° ESE
Unknown 3.6 18:01:33 10° W 18:05:42 72° SSW 18:06:52 44° ESE
Unknown 3.7 18:04:52 10° W 18:09:00 71° SSW 18:10:03 47° SE
Ariane Rocket 2.9 18:04:30 10° SSE 18:09:37 89° E 18:14:47 10° NNW
ADEOS Rocket 4.0 18:03:42 10° NNE 18:10:28 33° E 18:13:06 26° SE
Unknown 3.7 18:06:28 10° W 18:10:37 70° SSW 18:11:36 48° SE
Cosmos 1812 Rocket 3.8 18:06:24 10° SSW 18:10:50 71° WNW 18:15:20 10° N
Unknown 3.7 18:08:11 10° W 18:12:18 69° SSW 18:13:14 50° SE
Meteor 2-1 Rocket 4.1 18:07:02 10° S 18:12:30 66° E 18:18:05 10° NNE
Cosmos 468 Rocket 4.1 18:07:39 10° S 18:12:43 50° ESE 18:15:41 23° NE
HJ-1C 3.2 18:13:18 69° SSE 18:13:40 84° ENE 18:17:02 10° NNW
Unknown 3.7 18:09:46 10° W 18:13:54 69° SSW 18:14:46 51° SE
Resurs 01 Rocket 3.4 18:15:52 19° NNE 18:15:52 19° NNE 18:17:49 10° N
Cosmos 2173 Rocket 4.0 18:08:43 10° NNW 18:15:01 85° W 18:21:11 10° S
Cosmos 1727 Rocket 4.2 18:11:20 10° SSW 18:17:30 73° WNW 18:23:43 10° N
Cosmos 1238 Rocket 4.4 18:12:10 10° N 18:18:20 39° ENE 18:19:21 37° E
Cosmos 2278 Rocket 2.9 18:13:12 10° SW 18:18:47 55° NW 18:24:24 10° NNE
Cosmos 990 Rocket 4.3 18:13:50 10° NNW 18:19:01 68° WSW 18:23:48 12° SSE
deb Kosmos-1763 3.9 18:15:32 10° NNW 18:19:16 89° NE 18:19:42 69° SSE
Lacrosse 5 4.2 18:16:26 10° W 18:19:57 19° SW 18:23:29 10° S
Unknown 3.7 18:16:29 10° W 18:20:37 66° SSW 18:21:13 56° SSE
YAOGAN 1 4.1 18:17:19 10° SSW 18:21:19 36° W 18:25:21 10° NNW
Cosmos 1864 Rocket 4.4 18:15:11 10° N 18:21:19 66° ENE 18:25:35 21° SSE
Cosmos 1937 Rocket 3.5 18:16:46 10° NNW 18:21:56 79° WSW 18:25:12 23° SSE
Unknown 3.7 18:18:09 10° W 18:22:16 65° SSW 18:22:50 57° SSE
Cosmos 2150 Rocket 4.2 18:18:14 10° NNW 18:23:36 56° ENE 18:24:42 47° E
Unknown 3.7 18:19:49 10° W 18:23:56 64° SSW 18:24:25 58° SSE
Cosmos 2297 3.6 18:19:13 10° SSW 18:24:54 71° ESE 18:29:18 18° NE
Unknown 3.7 18:21:27 10° W 18:25:33 63° SSW 18:25:59 59° SSE
Unknown 3.7 18:23:08 10° W 18:27:14 62° SSW 18:27:36 59° S
CZ-4 R/B 3.8 18:24:07 10° SSW 18:27:37 25° W 18:31:10 10° NW
Cosmos 1825 4.0 18:24:27 10° N 18:25:54 20° NNE 18:25:54 20° NNE
BREEZE-M DEB (TANK) 3.5 18:21:22 10° SW 18:28:10 35° S 18:28:17 35° SSE
ARGOS 3.3 18:27:51 47° E 18:28:30 50° ENE 18:33:45 10° N
NOSS 3-2 (C) 3.4 18:22:51 10° SSW 18:28:42 66° SE 18:31:43 33° ENE
Cosmos 1802 Rocket 4.1 18:23:05 10° NNW 18:29:33 82° W 18:35:56 10° S
SJ-11-01 4.1 18:28:54 46° SSE 18:30:17 79° ENE 18:34:59 10° NNW
Unknown 3.8 18:26:26 10° W 18:30:33 61° SSW 18:30:47 59° S
Starlink (trailer) 3.8 18:28:06 10° W 18:32:12 60° SSW 18:32:23 59° S
Cosmos 2123 Rocket 4.0 18:27:33 10° S 18:33:41 58° E 18:39:48 10° NNE
Unknown 3.8 18:29:47 10° W 18:33:53 59° SSW 18:34:00 59° S
SJ-6B 3.9 18:36:45 33° N 18:36:45 33° N 18:38:57 10° N
Cosmos 1570 Rocket 4.1 18:30:08 10° S 18:34:59 54° SE 18:34:59 54° SE
Unknown 3.8 18:31:29 10° W 18:35:35 58° SSW 18:35:38 58° SSW
Cosmos 2233 Rocket 4.0 18:29:42 10° N 18:35:55 57° ENE 18:37:21 47° ESE
ATLAS CENTAUR R/B 1.9 18:31:48 10° NW 18:36:02 50° NNE 18:36:02 50° NNE
Cosmos 1892 2.9 18:33:30 10° NNW 18:37:17 67° W 18:37:37 63° SW
Cosmos 1000 Rocket 4.4 18:33:15 10° S 18:39:29 87° W 18:45:50 10° N
Cosmos 1725 Rocket 3.9 18:33:15 10° N 18:39:35 84° E 18:43:50 22° SSE
Unknown 4.0 18:36:27 10° W 18:40:24 55° SSW 18:40:24 55° SSW
Cosmos 372 Rocket 3.8 18:36:05 10° NNW 18:41:14 68° ENE 18:41:29 66° E
SL-24 R/B 4.5 18:35:37 10° NNE 18:41:27 65° E 18:42:30 52° SSE
Cosmos-2242 2.9 18:37:38 10° S 18:41:59 86° WNW 18:46:21 10° N
Unknown 4.0 18:38:05 10° W 18:41:58 54° SW 18:41:58 54° SW
Unknown 4.1 18:39:45 10° W 18:43:34 53° SW 18:43:34 53° SW
Cosmos 44 3.0 18:40:17 10° SW 18:45:10 86° SE 18:45:15 85° E
Unknown 4.1 18:41:21 10° W 18:45:10 52° SW 18:45:10 52° SW
SL-27 R/B 3.7 18:42:37 10° NW 18:45:03 39° WNW 18:45:03 39° WNW
Unknown 4.2 18:43:04 10° W 18:46:45 51° SW 18:46:45 51° SW
Cosmos 1763 Rocket 3.3 18:42:01 10° SSW 18:47:18 72° ESE 18:47:28 72° E
CZ-2C R/B 3.5 18:48:12 52° ENE 18:48:12 52° ENE 18:53:34 10° N
Unknown 4.3 18:44:50 10° W 18:48:27 48° SW 18:48:27 48° SW
ATLAS 3B R/B 2.5 18:44:36 10° SSW 18:51:13 65° SE 18:52:29 54° E
Unknown 4.4 18:48:05 10° W 18:51:34 46° SW 18:51:34 46° SW
Unknown 4.4 18:48:09 10° W 18:51:38 46° SW 18:51:38 46° SW
Unknown 4.5 18:49:44 10° W 18:53:09 45° SW 18:53:09 45° SW
Cosmos 2298 Rocket 3.9 18:48:44 10° NNW 18:54:05 87° WSW 18:54:40 72° SSE
SJ 16-02 2.5 18:50:48 10° NW 18:54:55 40° WSW 18:56:28 29° SSW
CENTAUR R/B 2.5 18:50:41 10° SSW 18:56:48 72° SE 18:58:23 53° ENE
Cosmos 2016 Rocket 4.5 18:54:05 10° NNW 19:00:17 61° W 19:06:30 10° S
Cosmos 1833 4.1 18:54:52 10° NNW 19:00:23 68° NE 19:00:23 68° NE
SPOT 3 Rocket 3.6 19:05:59 70° SSW 19:06:27 76° WSW 19:11:42 10° NNW
Meteor 2-3 Rocket 3.7 19:02:28 10° NNW 19:07:59 75° NE 19:07:59 75° NE
Cosmos 2227 Rocket 3.9 19:10:22 10° NNW 19:14:09 22° NNE 19:14:09 22° NNE
Cosmos 2297 Rocket 3.8 19:14:47 10° NNW 19:18:26 23° NNE 19:18:26 23° NNE
H-2A R/B 2.3 19:21:20 67° WSW 19:21:29 68° WSW 19:26:57 10° NNW
USA 238 DEB 4.2 19:24:17 10° WSW 19:30:57 55° NNW 19:33:35 36° NNE
USA 238 4.2 19:24:23 10° WSW 19:31:03 55° NNW 19:33:39 37° NNE
Cosmos 1125 Rocket 4.4 19:34:28 10° NNW 19:38:14 47° NW 19:38:14 47° NW
Timation 2 Rocket 4.2 19:34:51 10° NNW 19:39:40 59° NNW 19:39:40 59° NNW
ATLAS 5 CENTAUR R/B 3.5 19:39:42 10° NW 19:43:20 29° N 19:43:20 29° N
Resurs 01 Rocket 3.9 19:53:26 21° NNW 19:53:26 21° NNW 19:54:59 10° NNW
NOSS 3-2 (A) 4.3 19:46:46 10° W 19:52:45 50° NNW 19:53:56 45° N
ADEOS Rocket 3.6 19:48:54 10° NNE 19:56:34 71° WNW 19:59:59 34° SW
Cosmos 2278 Rocket 4.5 20:00:03 10° WNW 20:04:09 20° NNW 20:07:32 12° NNE
ATLAS CENTAUR R/B 4.3 20:11:06 10° WNW 20:12:14 16° WNW 20:12:14 16° WNW
NOSS 3-2 (C) 4.4 20:13:57 10° W 20:19:12 47° NW 20:19:12 47° NW
ATLAS 3B R/B 3.9 20:35:44 10° WSW 20:39:46 35° WNW 20:39:46 35° WNW
CENTAUR R/B 3.9 20:41:37 10° W 20:45:37 36° WNW 20:45:37 36° WNW
Cosmos 2227 Rocket 4.4 20:54:13 10° NNW 20:55:57 20° NNW 20:55:57 20° NNW
Cosmos 2297 Rocket 4.5 20:58:37 10° NNW 21:00:14 20° NNW 21:00:14 20° NNW
